Location: Codford Saint Peter
(51.1597°N, 2.0531°W)
Time: 17:25:20
(UTC+00:00)

Envisat - Pass Details

Date: 07 February 2022
Orbit: 764 x 765 km, 98.2° (Epoch: 19 May)

Event Time Altitude Azimuth Distance (km) Brightness Sun altitude
Rises 03:30:11 0° 29° (NNE) 3,244 6.9 -38.2°
Reaches altitude 10° 03:33:51 10° 57° (ENE) 2,312 6.2 -37.7°
Maximum altitude 03:36:14 13° 85° (E) 2,086 5.9 -37.4°
Drops below altitude 10° 03:38:38 10° 113° (ESE) 2,304 5.9 -37.0°
Sets 03:42:15 0° 140° (SE) 3,224 6.4 -36.5°
